DW1970 Bodega Bay CA US current weather conditions

sailwx.info

Wind from 049 at 2 knots

Air temperature 11.1° C
Dewpoint 10.7° C

Last reported at 2019-Jan-19 10:02 UTC.
Time now 2019-Jan-19 10:34 UTC

Location: N 38°23' W 123°04'.
View on Google Maps.

See reports from other nearby stations

  
Tides and Currents Weather Stations Pressure Air Temp Water Temp Dewpoint Dewpoint Depression Visibility Wind Speed Wind Dir Waves Ship Positions
date/time (UTC)wind fromknots sea level pressurealtimeterstation pressurevisibilityair tempwater tempwave heightnotes
2019-Jan-19 10:02 049 2 11.1
2019-Jan-19 09:46 072 4 11.1
2019-Jan-19 09:31 067 5 11.1
2019-Jan-19 09:16 080 4 11.1
2019-Jan-19 09:03 065 4 11.1
2019-Jan-19 08:45 087 5 11.1
2019-Jan-19 08:31 079 5 11.1
2019-Jan-19 08:15 051 3 10.6
2019-Jan-19 08:00 072 4 10.6
2019-Jan-19 07:46 088 4 10.6
2019-Jan-19 07:30 076 2 10.6
2019-Jan-19 07:15 082 2 10.6
2019-Jan-19 07:01 088 4 10.6
2019-Jan-19 06:46 071 3 10.6
2019-Jan-19 06:30 079 3 10.6
2019-Jan-19 06:15 071 2 10.6
2019-Jan-19 06:01 082 1 11.1
2019-Jan-19 05:45 098 5 11.7
2019-Jan-19 05:30 092 4 11.1
2019-Jan-19 05:15 081 5 11.1
2019-Jan-19 05:00 078 3 11.1
2019-Jan-19 04:45 115 5 11.7
2019-Jan-19 04:30 118 3 11.1
2019-Jan-19 04:15 103 2 11.7
2019-Jan-19 04:00 127 6 11.7
2019-Jan-19 03:45 112 2 11.7
2019-Jan-19 03:30 157 1 11.7
2019-Jan-19 03:15 146 4 12.8
2019-Jan-19 03:00 124 0 12.8
2019-Jan-19 02:45 124 4 13.3
2019-Jan-19 02:30 121 6 13.3
2019-Jan-19 02:15 124 7 13.3
2019-Jan-19 02:00 118 8 13.3
2019-Jan-19 01:45 117 6 13.3
2019-Jan-19 01:30 108 6 13.3
2019-Jan-19 01:15 109 6 13.3
2019-Jan-19 01:00 107 6 13.3
2019-Jan-19 00:45 101 7 13.3
2019-Jan-19 00:30 131 8 13.3
2019-Jan-19 00:15 128 6 13.3
2019-Jan-19 00:00 133 7 13.3
2019-Jan-18 23:45 148 6 13.3
2019-Jan-18 23:30 127 6 13.3
2019-Jan-18 23:15 148 7 13.3
2019-Jan-18 23:00 156 6 13.3
2019-Jan-18 22:45 156 5 13.3
2019-Jan-18 22:32 137 0 13.9
2019-Jan-18 21:31 105 4 13.9
2019-Jan-18 21:16 066 3 13.9
2019-Jan-18 21:01 078 5 13.9
2019-Jan-18 20:47 088 3 13.9
2019-Jan-18 20:30 084 4 13.3
2019-Jan-18 20:16 076 3 13.3
2019-Jan-18 20:00 084 4 12.8
2019-Jan-18 19:46 082 5 12.8
2019-Jan-18 19:31 088 5 12.8
2019-Jan-18 19:15 092 5 12.8
2019-Jan-18 19:00 094 4 12.8
2019-Jan-18 18:45 080 4 12.2
2019-Jan-18 18:31 083 5 11.7
2019-Jan-18 18:15 058 5 11.7
2019-Jan-18 18:01 065 5 11.7
2019-Jan-18 17:45 098 6 11.7
2019-Jan-18 17:30 100 6 11.7
2019-Jan-18 17:15 088 6 11.1
2019-Jan-18 17:00 096 7 11.1
2019-Jan-18 16:45 082 6 11.1
2019-Jan-18 16:30 094 4 11.1
2019-Jan-18 16:15 077 5 11.1
2019-Jan-18 16:00 092 4 10.6
2019-Jan-18 15:45 082 5 10.6
2019-Jan-18 15:30 078 5 10.6
2019-Jan-18 15:15 086 5 10.6
2019-Jan-18 15:00 096 6 10.6
2019-Jan-18 14:45 090 6 10.6
2019-Jan-18 14:30 100 5 11.1
2019-Jan-18 14:15 088 4 11.1
2019-Jan-18 14:02 084 6 11.1
2019-Jan-18 13:46 090 5 11.1
2019-Jan-18 13:31 080 5 11.1
2019-Jan-18 13:17 064 4 11.1
2019-Jan-18 13:02 086 4 11.1
2019-Jan-18 12:47 088 4 11.1
2019-Jan-18 12:31 102 4 11.1
2019-Jan-18 12:16 071 4 11.1
2019-Jan-18 12:01 063 2 11.1
2019-Jan-18 11:46 082 4 10.6
2019-Jan-18 11:31 082 5 11.1
2019-Jan-18 11:17 075 4 11.1
2019-Jan-18 11:01 091 4 11.1
2019-Jan-18 10:46 090 3 11.1
2019-Jan-18 10:31 090 2 11.1
2019-Jan-18 10:16 242 0 11.1
2019-Jan-18 10:01 242 11.1
2019-Jan-18 09:46 242 11.1
2019-Jan-18 09:31 242 11.1
2019-Jan-18 09:15 242 10.6
2019-Jan-18 09:01 242 10.6
2019-Jan-18 08:46 242 11.1
2019-Jan-18 08:31 242 11.1
2019-Jan-18 08:15 242 11.1
2019-Jan-18 08:00 242 11.1
2019-Jan-18 07:45 242 11.1
2019-Jan-18 07:30 242 11.1
2019-Jan-18 07:15 242 11.1
2019-Jan-18 07:00 242 11.1
2019-Jan-18 06:46 242 11.1
2019-Jan-18 06:31 242 11.1
2019-Jan-18 06:15 242 11.1
2019-Jan-18 06:01 242 11.1
2019-Jan-18 05:45 242 0 11.1
2019-Jan-18 05:30 242 11.1
2019-Jan-18 05:15 242 0 11.1
2019-Jan-18 05:00 252 0 11.1
2019-Jan-18 04:45 060 10.6
2019-Jan-18 04:30 139 10.6
2019-Jan-18 04:15 216 10.6
2019-Jan-18 04:00 216 1 10.6
2019-Jan-18 03:45 234 6 11.1
2019-Jan-18 03:32 226 0 11.7
2019-Jan-18 03:02 298 11.1
2019-Jan-18 02:48 298 10.6
2019-Jan-18 02:31 298 10.6
2019-Jan-18 02:17 298 10.6
2019-Jan-18 02:02 298 10.6
2019-Jan-18 01:47 298 10.6
2019-Jan-18 01:34 298 10.6
2019-Jan-18 01:17 298 10.6
2019-Jan-18 01:02 298 4 10.6
2019-Jan-18 00:48 294 3 10.6
2019-Jan-18 00:32 286 6 10.6
2019-Jan-18 00:17 206 6 12.2
2019-Jan-18 00:02 213 6 12.2
2019-Jan-17 23:46 210 5 12.8
2019-Jan-17 23:31 211 4 12.8
2019-Jan-17 23:16 212 4 12.8
2019-Jan-17 23:01 205 5 12.8
2019-Jan-17 22:47 194 4 13.3
2019-Jan-17 22:31 211 5 13.3
2019-Jan-17 22:16 186 6 13.3
2019-Jan-17 22:01 212 7 12.8
2019-Jan-17 21:45 202 7 12.8
2019-Jan-17 21:30 209 5 12.8
2019-Jan-17 21:16 191 4 12.8
2019-Jan-17 21:00 196 2 12.8
2019-Jan-17 20:45 169 2 12.2
2019-Jan-17 20:31 290 0 12.2
2019-Jan-17 20:16 296 11.7
2019-Jan-17 20:00 296 11.7
2019-Jan-17 19:45 296 11.1
2019-Jan-17 19:30 296 11.1
2019-Jan-17 19:15 296 2 10.6
2019-Jan-17 19:00 288 1 10.6
2019-Jan-17 18:45 301 8 10.6
2019-Jan-17 18:30 215 9 11.7
2019-Jan-17 18:15 205 14 11.7
2019-Jan-17 18:00 208 6 12.8
2019-Jan-17 17:45 210 6 12.8
2019-Jan-17 17:30 199 6 12.2
2019-Jan-17 17:15 222 6 12.2
2019-Jan-17 17:00 209 6 12.2
2019-Jan-17 16:45 210 6 11.7
2019-Jan-17 16:32 212 5 11.7
2019-Jan-17 16:16 215 3 11.1
2019-Jan-17 16:01 215 0 10.6
2019-Jan-17 15:45 215 2 10.6
2019-Jan-17 15:32 221 2 10.0
2019-Jan-17 15:17 251 6 9.4
2019-Jan-17 15:02 240 9 11.1
2019-Jan-17 14:46 209 7 12.2
2019-Jan-17 14:31 184 7 12.2
2019-Jan-17 14:16 192 8 12.2
2019-Jan-17 14:02 155 8 12.2
2019-Jan-17 13:46 167 9 12.2
2019-Jan-17 13:30 159 9 12.2
2019-Jan-17 13:16 167 9 12.2
2019-Jan-17 13:01 148 9 12.2
2019-Jan-17 12:46 167 9 12.2
2019-Jan-17 12:31 157 8 12.2
2019-Jan-17 12:15 163 8 12.2
2019-Jan-17 12:01 163 8 12.2
2019-Jan-17 11:46 149 7 12.2
2019-Jan-17 11:30 167 8 12.2
2019-Jan-17 11:16 161 7 12.2
2019-Jan-17 11:00 166 6 12.2
2019-Jan-17 10:45 169 6 12.2
2019-Jan-17 10:30 174 7 12.2
2019-Jan-17 10:15 188 7 12.2
2019-Jan-17 10:00 171 6 12.2